Home > Weather > Bautzen > Past weeks

Flag for Germany Past Weather in Bautzen, Saxony, Germany — Yesterday and Last 2 Weeks

Now
79 °F

Passing clouds.


Feels Like: 80 °F
Forecast: 58 / 80 °F
Wind: 9 mph from East

Location: Dresden-Klotzsche

Current Time: Aug 24, 2016 at 6:11:51 PM

Latest Report: Aug 24, 2016 at 5:20 PM


Visibility: N/A

Pressure: 30.27 "Hg

Humidity: 48%

Dew Point: 57 °F

Location of BautzenLocation

Past Weather in Bautzen — Graph

°F

Bautzen Temperature Yesterday

Maximum temperature yesterday: 75 °F (at 12:50 PM)
Minimum temperature yesterday: 59 °F (at 2:50 AM)
Average temperature yesterday: 67 °F

High & Low Weather Summary for the Past Weeks

 TemperatureHumidityPressure
High81 °F (Aug 20, 4:50 PM)100% (Aug 12, 6:50 PM)30.36 "Hg (Aug 12, 6:50 PM)
Low45 °F (Aug 11, 5:50 AM)30% (Aug 19, 3:50 PM)29.80 "Hg (Aug 18, 3:50 PM)
Average62 °F73%30.11 "Hg
* Reported Aug 9 4:20 PM — Aug 24 4:50 PM, Bautzen, Weather by CustomWeather, © 2016

Note: Actual official high and low records may vary slightly from our data, if they occured in-between our weather recording intervals... More about our weather records

Advertising

Bautzen Weather History for the Previous 24 Hours

Scroll right to see more
 ConditionsComfort  
Time TempWeatherWind HumidityBarometerVisibility
4:50 PM
Wed, Aug 24
79 °FPassing clouds.8 mph51%30.27 "HgN/A
4:20 PM79 °FPassing clouds.8 mph51%30.27 "HgN/A
3:50 PM79 °FPassing clouds.8 mph51%30.27 "HgN/A
3:20 PM79 °FPassing clouds.7 mph48%30.27 "HgN/A
2:50 PM79 °FPassing clouds.7 mph51%30.27 "HgN/A
2:20 PM79 °FPassing clouds.8 mph48%30.30 "HgN/A
1:50 PM77 °FPassing clouds.7 mph54%30.30 "HgN/A
1:20 PM77 °FPassing clouds.7 mph54%30.30 "HgN/A
12:50 PM75 °FPassing clouds.6 mph57%30.30 "HgN/A
12:20 PM75 °FPassing clouds.6 mph57%30.33 "HgN/A
11:50 AM73 °FPassing clouds.7 mph61%30.33 "HgN/A
11:20 AM73 °FPassing clouds.7 mph61%30.33 "HgN/A
10:50 AM72 °FPassing clouds.6 mph61%30.33 "HgN/A
10:20 AM72 °FPassing clouds.7 mph65%30.33 "HgN/A
9:50 AM70 °FPassing clouds.7 mph69%30.33 "HgN/A
9:20 AM70 °FPassing clouds.7 mph78%30.33 "HgN/A
8:50 AM66 °FPassing clouds.2 mph88%30.33 "HgN/A
8:20 AM64 °FPassing clouds.3 mph88%30.33 "HgN/A
7:50 AM61 °FSunny.2 mph94%30.33 "Hg10 mi
7:20 AM61 °FSunny.1 mph94%30.33 "Hg10 mi
6:50 AM61 °FFog.2 mph94%30.33 "HgN/A
6:20 AM59 °FFog.3 mph100%30.33 "HgN/A
5:50 AM57 °FFog.2 mph100%30.33 "HgN/A
5:20 AM59 °FClear.2 mph94%30.30 "Hg10 mi
4:50 AM59 °FClear.3 mph100%30.30 "Hg10 mi
4:20 AM61 °FClear.2 mph94%30.33 "Hg10 mi
3:50 AM61 °FClear.3 mph100%30.33 "Hg10 mi
3:20 AM61 °FClear.2 mph94%30.33 "Hg10 mi
2:50 AM61 °FClear.2 mph94%30.33 "Hg10 mi
2:20 AM63 °FClear.2 mph88%30.33 "Hg10 mi
1:50 AM63 °FClear.1 mph88%30.33 "Hg10 mi
1:20 AM64 °FClear.2 mph88%30.33 "Hg10 mi
12:50 AM64 °FClear.2 mph88%30.33 "Hg10 mi
12:20 AM66 °FClear.1 mph83%30.33 "Hg10 mi
11:50 PM
Tue, Aug 23
66 °FClear.2 mph83%30.33 "Hg10 mi
11:20 PM66 °FClear.2 mph83%30.33 "Hg10 mi
10:50 PM68 °FClear.3 mph78%30.33 "Hg10 mi
10:20 PM68 °FClear.3 mph78%30.33 "Hg10 mi
9:50 PM70 °FClear.3 mph73%30.33 "Hg10 mi
9:20 PM70 °FClear.2 mph73%30.33 "Hg10 mi
8:50 PM70 °FSunny.2 mph73%30.33 "Hg10 mi
8:20 PM72 °FSunny.2 mph65%30.33 "Hg10 mi
7:50 PM70 °FSunny.2 mph73%30.33 "Hg10 mi
7:20 PM72 °FSunny.2 mph69%30.33 "Hg10 mi
6:50 PM72 °FSunny.2 mph69%30.33 "Hg10 mi
6:20 PM72 °FSunny.3 mph65%30.33 "Hg10 mi
Weather by CustomWeather, © 2016

See weather overviewHow to use our weather pages